EHI
3 3 4 5 4 1 3 9 13 12 9 5 3 2 1 0 0 0 0 0 0 0 0 0 0 0 0 0 0 0 0 0 0 0 0 0 0 0 0 0 0 0 0
4 4 5 6 4 2 3 8 11 10 6 4 3 2 1 0 0 0 0 0 0 0 0 0 0 0 0 0 0 0 0 0 0 0 0 0 0 0 0 0 0 0 0
7 6 6 5 4 3 4 6 8 7 4 2 3 2 1 0 0 0 0 0 0 0 0 0 0 0 0 0 0 0 0 0 0 0 0 0 0 0 0 0 0 0 0
7 6 5 4 3 4 4 5 7 6 3 1 1 1 0 0 0 0 0 0 0 0 0 0 0 0 0 0 0 0 0 0 0 0 0 0 0 0 0 0 0 0 0
6 5 4 3 2 4 4 5 7 7 3 1 0 0 0 0 0 0 0 0 0 0 0 0 0 0 0 0 0 0 0 0 0 0 0 0 0 0 0 0 0 0 0
4 4 3 3 2 3 3 4 5 5 3 2 1 0 0 0 0 0 0 0 0 0 0 0 0 0 0 0 0 0 0 0 0 0 0 0 0 0 0 0 0 0 0
4 3 3 4 4 3 3 3 4 4 4 3 2 1 0 1 1 0 0 0 0 0 0 0 0 0 0 0 0 0 0 0 0 0 0 0 0 0 0 0 0 0 0
4 4 4 5 5 4 3 2 3 5 6 6 5 3 2 1 1 0 0 0 0 0 0 0 0 0 0 0 0 0 0 0 0 0 0 0 0 0 0 0 0 0 0
3 3 4 5 4 3 1 1 3 6 8 7 7 6 5 5 3 1 0 0 0 0 0 0 0 0 0 0 0 0 0 0 0 0 0 0 0 0 0 0 0 0 0
1 1 2 3 2 1 1 1 3 6 7 7 7 6 7 9 8 4 2 1 1 1 0 0 0 0 0 0 0 0 0 0 0 0 0 0 0 0 0 0 0 0 0
0 0 1 1 1 1 2 3 4 6 7 7 8 9 10 12 11 8 5 5 4 2 1 0 0 0 0 0 0 0 0 0 0 0 0 0 0 0 0 0 0 0 0
0 0 0 0 0 0 2 4 5 6 7 10 14 16 18 18 15 10 7 7 5 3 1 0 0 0 0 0 0 0 0 0 0 0 0 0 0 0 0 0 0 0 0
2 2 2 2 2 2 3 4 4 5 8 14 21 26 29 29 23 14 10 9 7 4 2 1 0 0 0 0 0 0 0 0 0 0 0 0 0 0 0 0 0 0 0
8 9 9 8 7 7 8 8 8 9 12 18 27 35 38 38 31 23 16 11 7 5 3 1 0 0 0 0 0 0 0 0 0 0 0 0 0 0 0 0 0 0 0
11 13 13 12 11 12 12 13 16 19 23 25 29 35 38 38 34 28 21 13 6 3 3 2 1 0 0 0 0 0 0 0 0 0 0 0 0 0 0 0 0 0 0
8 8 10 11 11 11 10 13 19 25 30 31 30 30 32 33 32 27 19 11 5 3 3 3 1 0 0 0 0 0 0 0 0 0 0 0 0 0 0 0 0 0 0
5 4 6 8 9 7 7 11 18 25 31 32 30 28 28 28 25 20 14 9 4 3 5 4 2 1 0 0 0 0 0 0 0 1 2 2 1 0 1 1 0 0 0
4 4 5 7 8 7 8 12 18 24 27 28 26 24 23 20 17 14 10 7 6 5 6 5 5 5 3 1 0 0 0 1 1 1 2 3 2 1 1 1 1 1 1
5 5 4 6 8 8 8 12 17 20 20 18 17 15 12 10 10 9 7 6 7 7 6 5 7 9 7 3 0 0 0 1 1 1 1 2 2 1 1 1 1 2 2
5 5 4 5 6 6 7 8 10 11 10 8 7 6 5 5 5 5 5 6 7 6 5 5 7 9 7 3 0 0 0 0 1 1 1 1 1 0 0 0 1 1 1
3 4 4 4 4 4 6 6 5 4 3 2 1 1 2 3 3 4 5 5 5 4 5 6 7 7 4 2 0 0 0 0 0 1 1 0 0 0 0 0 0 0 0
1 2 2 2 2 3 5 5 4 2 0 0 0 0 0 1 1 3 5 5 4 3 4 5 5 5 4 2 0 0 0 0 0 0 0 0 0 0 0 0 0 0 0
0 1 1 1 1 2 2 3 3 1 0 0 0 0 0 0 0 1 3 3 3 2 2 2 3 4 4 3 1 0 0 0 0 0 0 0 0 0 0 0 0 0 0
0 0 0 0 0 0 0 1 1 0 0 0 0 0 0 0 0 0 1 1 1 1 1 2 2 3 4 3 1 0 0 0 0 0 0 0 0 0 0 0 0 0 0
0 0 0 0 0 0 0 0 0 0 0 0 0 0 0 0 0 0 0 0 1 1 1 1 1 1 2 1 0 0 0 0 0 0 0 0 0 0 0 0 0 0 0
0 0 0 0 0 0 0 0 0 0 0 0 0 0 0 0 0 0 0 0 1 1 1 0 0 0 0 0 0 0 0 0 0 0 0 0 0 0 0 0 0 0 0
Wind_Speed
9 9 9 10 10 10 10 10 10 10 8 7 7 7 7 6 5 5 5 4 3 3 1 2 2 1 2 1 1 1 1 1 2 3 2 3 2 2 1 1 1 1 1
10 11 11 10 11 11 11 11 11 11 10 8 6 5 6 5 5 4 5 5 4 3 2 2 1 2 2 1 1 2 2 1 1 4 3 3 5 3 2 2 2 2 1
12 13 13 12 11 11 12 11 11 12 11 10 7 6 5 5 5 6 5 5 5 3 2 2 1 1 1 2 1 1 2 1 0 2 4 4 1 3 4 2 2 2 2
11 12 13 13 12 12 11 11 11 11 11 10 9 10 8 6 6 5 5 6 6 5 4 3 2 1 0 1 1 2 1 2 1 2 1 4 5 4 2 5 3 2 1
12 12 13 13 13 13 12 12 12 11 11 10 10 9 8 6 5 5 6 6 6 6 6 5 4 3 2 1 1 1 2 1 2 1 0 0 1 4 4 1 1 2 1
11 12 12 12 12 13 12 12 12 12 11 11 11 11 9 7 6 7 6 7 6 6 8 7 5 5 3 3 3 2 2 1 2 2 2 2 2 2 3 3 3 3 1
12 12 13 13 13 14 14 13 13 13 13 12 12 11 10 9 9 8 7 7 5 6 8 7 7 6 5 4 4 4 2 3 2 3 2 2 2 2 3 4 4 4 3
13 13 14 14 14 15 15 14 14 14 13 13 12 11 10 9 7 8 7 7 5 5 6 8 8 7 7 6 5 5 5 4 4 4 3 3 3 3 3 4 5 5 4
14 14 15 15 15 15 15 15 14 14 14 14 13 11 11 10 8 8 8 7 6 5 7 8 8 8 8 7 7 6 5 5 6 6 6 6 4 4 4 4 5 6 7
13 14 14 15 15 15 15 15 15 15 14 14 12 10 11 11 10 9 9 8 8 7 8 9 9 9 8 8 8 7 7 7 7 5 5 6 6 4 5 5 5 5 7
13 14 14 14 15 15 15 15 15 14 13 13 13 12 11 11 11 10 10 10 9 9 10 10 10 10 10 9 9 9 8 9 8 8 8 8 8 6 6 6 6 6 7
11 13 13 14 14 14 15 15 14 14 14 13 13 12 12 11 11 12 11 11 11 10 11 10 10 10 10 10 11 11 10 10 10 10 9 9 8 9 8 7 8 7 7
10 11 12 12 13 13 13 14 14 14 14 13 13 13 13 13 13 12 12 11 11 11 11 11 11 11 11 11 11 11 11 11 11 11 10 10 10 10 9 9 9 8 8
8 9 10 10 10 11 11 12 13 13 13 13 13 13 13 13 13 12 12 12 12 12 12 12 12 12 12 12 12 12 12 12 12 12 12 12 12 12 11 10 10 10 9
6 7 8 8 8 8 9 10 10 10 11 11 12 12 11 11 11 11 11 11 12 12 12 12 12 13 12 12 13 13 13 13 13 13 13 14 13 12 11 10 10 10 10
4 4 5 5 5 6 6 7 7 8 8 9 10 9 9 9 10 10 10 10 11 11 11 12 13 13 12 11 12 13 13 13 14 14 14 14 14 15 16 16 14 13 13
4 4 3 2 2 2 2 3 3 3 4 5 4 5 5 6 7 7 8 9 10 10 11 12 13 14 14 12 13 15 14 15 14 14 13 13 13 15 15 17 20 20 20
7 7 6 7 6 5 6 5 5 4 4 3 2 1 2 3 3 5 6 6 7 8 9 11 12 13 13 12 14 14 16 16 16 16 16 15 15 15 15 15 16 17 18
9 9 9 10 9 9 9 9 9 7 7 6 5 4 2 1 0 2 3 4 5 7 8 9 10 12 12 10 12 13 13 14 17 17 17 17 17 16 15 16 17 17 16
10 11 11 12 12 11 10 12 11 9 8 8 7 6 5 3 2 2 2 2 3 5 7 7 8 10 10 7 8 11 10 13 13 13 15 17 18 17 15 17 17 18 17
11 11 12 12 11 10 10 12 11 10 8 7 7 6 6 4 4 3 3 3 3 4 5 6 6 7 8 7 7 9 9 11 12 12 12 12 14 18 18 17 17 18 15
10 11 11 11 10 10 10 11 10 8 7 7 7 8 7 6 5 5 4 4 5 5 5 5 6 6 5 5 5 6 10 11 12 12 12 12 9 10 14 15 17 18 15
9 9 10 11 9 8 8 9 7 6 7 7 7 7 6 6 5 5 5 4 4 5 6 6 6 7 6 5 6 7 10 12 11 11 14 15 15 12 12 17 18 16 14
8 8 9 9 8 7 7 7 6 6 6 6 5 4 4 5 5 5 5 6 6 6 7 8 8 8 8 8 7 7 7 9 11 11 12 15 17 16 16 14 14 14 14
7 6 7 7 7 6 6 6 6 5 5 5 5 5 5 5 5 5 5 6 6 6 7 9 10 10 10 9 11 10 11 12 12 13 12 13 13 13 12 12 13 13 13
6 6 6 5 5 5 5 5 5 4 5 5 5 6 6 6 6 7 6 3 5 6 8 10 11 10 10 12 13 14 15 16 14 12 14 14 14 14 14 14 13 13 13
Wind_Direction
184 184 185 180 172 173 173 173 171 165 165 162 165 162 162 163 158 150 139 145 129 110 46 63 93 343 67 19 351 298 174 276 299 252 205 161 134 84 88 38 28 68 54
184 186 186 179 178 177 178 175 173 170 176 171 169 167 159 170 159 153 150 166 157 152 135 70 108 78 98 97 30 326 311 41 326 294 252 198 168 162 94 93 72 42 55
184 183 187 184 182 179 181 178 174 177 180 169 168 160 160 174 170 175 176 179 177 172 134 143 80 92 253 96 47 334 318 319 99 340 311 291 258 149 148 116 86 57 32
187 184 186 185 185 184 179 178 177 178 175 176 183 182 187 186 182 186 174 177 187 187 178 176 167 217 67 122 191 71 320 297 291 130 11 352 357 303 173 174 147 106 30
189 186 186 184 183 179 178 178 179 181 179 187 191 197 202 195 181 183 171 194 188 196 195 193 191 201 211 144 43 118 314 295 323 328 224 170 220 276 294 272 229 214 187
185 183 181 179 177 177 178 179 182 183 184 191 197 207 206 202 194 196 189 201 193 198 198 202 204 213 212 192 210 215 209 323 342 313 307 287 288 289 290 286 269 277 266
182 179 179 178 179 182 182 183 184 186 189 194 201 206 208 206 207 209 203 213 205 200 194 204 206 214 211 213 216 222 248 226 232 254 270 289 297 305 297 294 294 291 269
182 183 182 182 184 185 186 186 188 190 192 197 203 207 208 214 215 213 218 211 221 213 190 201 207 214 213 216 213 231 220 224 235 243 262 265 256 269 276 288 296 285 268
184 186 186 186 187 187 189 191 192 195 198 200 201 205 209 219 223 210 216 218 213 206 195 204 208 212 214 220 219 235 231 226 237 234 220 243 248 248 260 267 275 288 294
186 187 188 189 189 190 190 194 197 200 201 202 204 205 208 212 216 218 216 217 210 207 202 206 210 213 213 216 224 231 224 232 236 249 259 254 255 247 249 254 257 262 277
187 187 188 190 190 190 191 195 199 202 204 206 207 211 210 210 211 216 216 211 211 204 206 209 212 215 217 217 221 237 230 231 236 236 235 237 255 256 252 245 249 253 258
189 187 187 188 191 193 194 196 201 204 206 207 208 211 213 212 213 216 216 211 210 209 209 211 215 219 220 220 223 230 232 232 235 236 237 239 235 234 250 253 251 253 259
189 187 186 189 192 196 199 201 204 208 209 207 210 213 214 214 216 218 214 211 210 212 213 213 218 222 224 224 226 230 235 236 238 238 238 238 239 238 239 241 249 249 245
184 188 187 191 197 200 205 209 211 212 212 211 212 215 217 217 216 215 212 210 209 211 215 217 221 224 226 228 228 229 233 237 239 240 241 241 238 237 239 240 243 250 256
171 182 189 191 198 203 209 213 217 217 216 216 218 220 221 219 218 215 214 212 212 216 217 220 223 226 228 229 228 231 232 234 238 239 239 240 239 240 239 246 243 240 244
142 155 171 181 191 203 213 217 219 216 211 217 223 224 221 217 216 217 216 214 216 222 223 225 228 230 232 223 220 232 241 239 239 241 241 240 232 230 228 239 249 253 251
85 98 108 109 122 159 182 195 203 195 189 201 216 215 215 215 216 218 219 221 223 224 228 233 235 238 239 226 217 220 240 247 245 244 243 244 241 229 232 226 227 237 242
72 68 72 77 78 85 96 97 99 107 117 120 126 144 198 213 215 224 231 234 235 234 235 238 241 245 244 224 219 219 234 248 249 247 245 245 248 242 236 238 235 234 232
71 70 68 73 72 73 81 85 81 81 83 80 75 71 74 87 186 237 252 251 250 249 248 247 249 251 253 232 221 220 243 245 247 248 248 246 248 244 231 239 245 246 246
77 76 75 73 71 69 75 81 79 74 68 63 60 57 55 51 38 6 324 299 275 268 267 264 262 264 266 254 226 220 249 255 256 252 249 244 242 245 226 234 243 246 247
86 83 78 72 66 67 71 74 72 65 62 64 64 60 53 48 37 23 7 337 313 301 291 290 282 274 272 267 238 222 251 263 266 265 260 257 232 229 230 230 242 248 252
92 87 84 79 71 67 71 71 64 61 61 60 56 51 42 29 32 24 7 350 328 304 293 292 289 282 275 271 269 239 241 264 275 274 274 275 282 247 236 233 242 247 249
97 93 92 86 76 69 69 71 63 58 60 58 51 43 37 29 19 5 352 334 324 314 315 311 305 301 300 284 239 244 248 250 260 273 278 283 286 275 254 239 236 237 241
104 99 94 90 84 73 68 69 62 57 57 51 41 31 21 12 12 343 339 335 331 328 325 318 313 310 305 302 313 308 291 271 263 271 276 265 258 253 256 256 239 235 237
102 97 93 91 85 75 66 59 52 42 39 33 19 7 5 4 341 336 332 324 329 336 315 315 313 311 309 327 339 316 304 305 307 309 290 280 274 266 258 252 248 241 235
110 103 93 85 76 68 63 54 43 30 14 7 2 351 346 346 331 327 321 283 275 264 253 257 274 295 297 305 304 298 289 284 285 285 277 274 271 268 266 262 258 251 245